Location: *
(58.4167°N, 22.5000°E)
Time: 07:33:21
(UTC+00:00)

Cosmos 1825 Rocket - Pass Details

Date: 22 September 2019
Orbit: 603 x 632 km, 82.5° (Epoch: 15 October)

Event Time Altitude Azimuth Distance (km) Brightness Sun altitude
Rises 18:27:03 0° 349° (NNW) 2,883 7.6 -15.5°
Reaches altitude 10° 18:29:22 10° 356° (N) 1,971 6.6 -15.8°
Maximum altitude 18:33:33 44° 69° (ENE) 842 3.9 -16.3°
Enters shadow 18:35:03 32° 117° (ESE) 1,056 4.2 -16.4°
